Location: Unspecified
(47.1121°N, 116.3927°W)
Time: 06:16:53
(UTC-07:00)

ISS - Pass Details

Date: 20 May 2019
Orbit: 407 x 418 km, 51.6° (Epoch: 24 June)

Event Time Altitude Azimuth Distance (km) Brightness Sun altitude
Rises 22:55:01 0° 269° (W) 2,354 0.4 -18.6°
Reaches altitude 10° 22:57:11 10° 277° (W) 1,495 -0.5 -18.7°
Maximum altitude 23:00:23 41° 349° (N) 619 -2.4 -19.0°
Drops below altitude 10° 23:03:37 10° 62° (ENE) 1,503 -0.9 -19.2°
Enters shadow 23:06:40 -3° 72° (ENE) 2,724 0.3 -19.4°
